ARIANE 5 R/B, 43634

Orbit data source: Space-Track

ARIANE 5 R/B, 43634 is space debris in HEO originally from a launch on Tue, 25 Sep 2018 UTC launched from the French Guiana (FRGUI). Debris objects in space refer to the collection of defunct objects orbiting the Earth. Examples of debris include non-operational satellites, rocket bodies, and fragments generated from explosions, collisions, or faulty payload assembly.

Loading next visibility...
Identifier
43634, 2018-074C
Orbit
HEO
Country
Flag of FRFR
Related business
Manufacturer
ArianeGroup
Mission
Spacecraft
Bus & Motor
ESC-A, Unknown motor
Mass
~5,000 kg wet, ~5,000 kg dry
Launch date (UTC)
2018-09-25 (7 years ago)
Launch vehicle
Unknown
Launch site
French Guiana (FRGUI)
Object type
Payload
Rocket body
Debris
Shape & HBR
Cyl + 1 Nozzle, 3.5 m
Radar Cross Section
41.627 m², Large (>1 m²)

Expand to show TLE details & history
Last TLE update: 1 day ago

TLE from 1 day ago
0 ARIANE 5 R/B
1 43634U 18074C   25348.86463797  .00001124  00000-0  56842-3 0  9998
2 43634   5.8262 121.0062 7140668 252.4248  23.4554  2.43886900 61837
Epoch: 2025-12-14T20:45Z
TLE epoch observation values (Epoch: 2025-12-14T20:45:04.720Z)
Latitude
-0.00001°
Longitude
85.60222°
Altitude
8,118.016 km
Speed
6.156 km/s
True Right ascension
08h 02m 34s
True Declination
0° 00' 00"
Sunlit
Object was in daylight at epoch
Visualization orbit readout
Latitude
Unknown
Longitude
Unknown
Altitude
Unknown
Speed
Unknown
Apparent Right ascension
Unknown
Apparent Declination
Unknown
Sunlit
N/A
Visualization observer readout
Local Sidereal Time
23:22:51
Azimuth
Unknown
Elevation
Unknown
Doppler factor
Unknown
Orbital elements
Apogee altitude
33,592.265 km
Perigee altitude
289.552 km
Semi-major axis
23,319.046 km
Eccentricity
0.71407
Inclination
5.8262°
RAAN
121.0062°
Arg. of periapsis
252.4248°
True anomaly
107.50585°
Mean anomaly
23.4554°
Eccentric anomaly
58.24339°
Mean motion
0.6095 °/min
Orbital period
590.64 mins
BSTAR
0.00056842
Loading maneuver chart data...
Computing Atmospheric mass density...
Loading historical data...
Loading historical data...
Loading historical data...
Loading historical data...
Loading historical data...
Loading historical data...
Loading historical data...
Other satellites on launch #74 in the year 2018 (2018-09-25 UTC)

Documentation

Showing up to 5 results
|